TimeCEST,TemperatureF,Dew PointF,Humidity,Sea Level PressureIn,VisibilityMPH,Wind Direction,Wind SpeedMPH,Gust SpeedMPH,PrecipitationIn,Events,Conditions,WindDirDegrees,DateUTC
12:00 AM,69.8,60.8,73,30.04,-9999.0,East,4.6,-,N/A,,Clear,100,2013-08-05 22:00:00
12:30 AM,66.2,60.8,83,30.06,-9999.0,East,4.6,-,N/A,,Clear,100,2013-08-05 22:30:00
1:00 AM,68.0,60.8,78,30.04,-9999.0,East,3.5,-,N/A,,Clear,90,2013-08-05 23:00:00
1:30 AM,66.2,60.8,83,30.04,-9999.0,East,2.3,-,N/A,,Clear,100,2013-08-05 23:30:00
2:00 AM,64,60,84,30.04,31,WNW,4.5,,,,Clear,300,2013-08-06 00:00:00
2:00 AM,64.4,60.8,88,30.06,-9999.0,WNW,4.6,-,N/A,,Clear,290,2013-08-06 00:00:00
2:30 AM,64.4,60.8,88,30.04,-9999.0,NNW,2.3,-,N/A,,Clear,340,2013-08-06 00:30:00
3:00 AM,64.4,60.8,88,30.04,-9999.0,Variable,1.2,-,N/A,,Clear,0,2013-08-06 01:00:00
3:30 AM,64.4,60.8,88,30.04,-9999.0,Variable,2.3,-,N/A,,Clear,0,2013-08-06 01:30:00
4:00 AM,60.8,59.0,94,30.04,-9999.0,Variable,2.3,-,N/A,,Clear,0,2013-08-06 02:00:00
4:30 AM,62.6,60.8,94,30.04,-9999.0,WNW,3.5,-,N/A,,Clear,300,2013-08-06 02:30:00
5:00 AM,62.6,60.8,94,30.04,-9999.0,North,2.3,-,N/A,,Clear,350,2013-08-06 03:00:00
5:30 AM,62.6,60.8,94,30.04,-9999.0,NNE,3.5,-,N/A,,Clear,20,2013-08-06 03:30:00
6:00 AM,62.6,59.0,88,30.04,-9999.0,ENE,2.3,-,N/A,,Clear,60,2013-08-06 04:00:00
6:30 AM,62.6,60.8,94,30.04,-9999.0,Variable,1.2,-,N/A,,Clear,0,2013-08-06 04:30:00
7:00 AM,68.0,62.6,83,30.04,-9999.0,Variable,1.2,-,N/A,,Clear,0,2013-08-06 05:00:00
7:30 AM,69.8,64.4,83,30.04,-9999.0,ESE,3.5,-,N/A,,Clear,110,2013-08-06 05:30:00
8:00 AM,71,64,73,30.01,7,SSE,2.2,,,,Clear,150,2013-08-06 06:00:00
8:00 AM,71.6,64.4,78,30.04,-9999.0,South,3.5,-,N/A,,Clear,170,2013-08-06 06:00:00
8:30 AM,73.4,64.4,73,30.04,-9999.0,South,4.6,-,N/A,,Clear,170,2013-08-06 06:30:00
9:00 AM,75.2,64.4,69,30.06,-9999.0,South,4.6,-,N/A,,Clear,180,2013-08-06 07:00:00
9:30 AM,77.0,62.6,61,30.04,-9999.0,South,3.5,-,N/A,,Clear,170,2013-08-06 07:30:00
10:00 AM,78.8,64.4,61,30.04,-9999.0,SE,5.8,-,N/A,,Clear,130,2013-08-06 08:00:00
10:30 AM,78.8,62.6,57,30.04,-9999.0,SE,3.5,-,N/A,,Clear,130,2013-08-06 08:30:00
11:00 AM,80.6,66.2,61,30.04,-9999.0,SE,3.5,-,N/A,,Clear,140,2013-08-06 09:00:00
11:30 AM,80.6,64.4,58,30.04,-9999.0,SSE,4.6,-,N/A,,Clear,150,2013-08-06 09:30:00
12:00 PM,80.6,66.2,61,30.04,-9999.0,Variable,3.5,-,N/A,,Clear,0,2013-08-06 10:00:00
12:30 PM,82.4,64.4,54,30.04,-9999.0,Variable,2.3,-,N/A,,Clear,0,2013-08-06 10:30:00
1:00 PM,84.2,64.4,51,30.04,-9999.0,SE,3.5,-,N/A,,Clear,130,2013-08-06 11:00:00
1:30 PM,86.0,64.4,48,30.01,-9999.0,Variable,2.3,-,N/A,,Clear,0,2013-08-06 11:30:00
2:00 PM,87,64,36,29.94,22,SSE,4.5,,,,Scattered Clouds,150,2013-08-06 12:00:00
2:00 PM,87.8,66.2,49,30.01,-9999.0,SSE,4.6,-,N/A,,Clear,160,2013-08-06 12:00:00
2:30 PM,86.0,66.2,51,30.01,-9999.0,SE,5.8,-,N/A,,Clear,130,2013-08-06 12:30:00
3:00 PM,87.8,64.4,46,29.98,-9999.0,East,5.8,-,N/A,,Clear,90,2013-08-06 13:00:00
3:30 PM,87.8,66.2,49,29.98,-9999.0,Variable,2.3,-,N/A,,Clear,0,2013-08-06 13:30:00
4:00 PM,86.0,62.6,45,29.98,-9999.0,SE,5.8,-,N/A,,Clear,130,2013-08-06 14:00:00
4:30 PM,86.0,68.0,55,29.98,-9999.0,East,5.8,-,N/A,,Clear,100,2013-08-06 14:30:00
5:00 PM,86.0,68.0,55,29.98,-9999.0,East,6.9,-,N/A,,Clear,100,2013-08-06 15:00:00
5:30 PM,87.8,66.2,49,29.95,-9999.0,ESE,6.9,-,N/A,,Clear,110,2013-08-06 15:30:00
6:00 PM,86.0,66.2,51,29.95,-9999.0,East,11.5,-,N/A,,Clear,90,2013-08-06 16:00:00
6:30 PM,86.0,66.2,51,29.92,-9999.0,East,11.5,-,N/A,,Clear,90,2013-08-06 16:30:00
7:00 PM,82.4,64.4,54,29.92,-9999.0,East,11.5,-,N/A,,Clear,80,2013-08-06 17:00:00
7:30 PM,80.6,62.6,54,29.92,-9999.0,East,9.2,-,N/A,,Clear,90,2013-08-06 17:30:00
8:00 PM,79,62,47,29.86,22,East,8.9,,,,Scattered Clouds,90,2013-08-06 18:00:00
8:00 PM,78.8,62.6,57,29.92,-9999.0,East,10.4,-,N/A,,Clear,80,2013-08-06 18:00:00
8:30 PM,78.8,62.6,57,29.92,-9999.0,East,9.2,-,N/A,,Clear,100,2013-08-06 18:30:00
9:00 PM,78.8,60.8,54,29.92,-9999.0,East,9.2,-,N/A,,Clear,100,2013-08-06 19:00:00
9:30 PM,77.0,62.6,61,29.92,-9999.0,East,8.1,-,N/A,,Clear,90,2013-08-06 19:30:00
9:44 PM,78.8,62.6,57,29.95,6.2,NW,12.7,-,N/A,Thunderstorm,Squalls,310,2013-08-06 19:44:00
9:45 PM,75.2,60.8,61,29.95,6.2,WNW,18.4,43.7,N/A,Thunderstorm,Squalls,290,2013-08-06 19:45:00
9:47 PM,71.6,59.0,64,29.98,6.2,West,35.7,-,N/A,Thunderstorm,Squalls,270,2013-08-06 19:47:00
9:54 PM,69.8,59.0,68,29.95,6.2,West,32.2,46.0,N/A,Rain-Thunderstorm,Light Thunderstorms and Rain,280,2013-08-06 19:54:00
10:00 PM,69.8,59.0,68,29.98,6.2,West,32.2,46.0,N/A,Rain-Thunderstorm,Light Thunderstorms and Rain,280,2013-08-06 20:00:00
10:07 PM,69.8,60.8,73,30.04,6.2,West,39.1,50.6,N/A,Rain-Thunderstorm,Light Thunderstorms and Rain,270,2013-08-06 20:07:00
10:30 PM,64.4,60.8,88,30.01,6.2,WNW,31.1,46.0,N/A,Rain-Thunderstorm,Light Thunderstorms and Rain,300,2013-08-06 20:30:00
10:35 PM,64.4,60.8,88,30.04,4.3,WNW,21.9,-,N/A,Rain-Thunderstorm,Thunderstorms and Rain,300,2013-08-06 20:35:00
10:37 PM,62.6,60.8,94,30.06,6.2,WNW,19.6,31.1,N/A,Rain-Thunderstorm,Heavy Thunderstorms and Rain,290,2013-08-06 20:37:00
10:38 PM,62.6,60.8,94,30.06,1.9,WNW,19.6,31.1,N/A,Rain-Thunderstorm,Heavy Thunderstorms and Rain,290,2013-08-06 20:38:00
10:39 PM,62.6,60.8,94,30.04,0.9,WNW,20.7,33.4,N/A,Rain-Thunderstorm,Heavy Thunderstorms and Rain,290,2013-08-06 20:39:00
10:44 PM,62.6,60.8,94,30.01,1.9,NW,26.5,-,N/A,Rain-Thunderstorm,Heavy Thunderstorms and Rain,310,2013-08-06 20:44:00
10:50 PM,62.6,60.8,94,30.01,4.3,NNW,28.8,-,N/A,Rain-Thunderstorm,Thunderstorms and Rain,330,2013-08-06 20:50:00
11:00 PM,62.6,62.6,100,30.01,5.0,NW,29.9,-,N/A,Rain-Thunderstorm,Thunderstorms and Rain,320,2013-08-06 21:00:00
11:06 PM,62.6,62.6,100,29.98,6.2,NW,24.2,36.8,N/A,Rain-Thunderstorm,Light Thunderstorms and Rain,310,2013-08-06 21:06:00
11:30 PM,64.4,62.6,94,29.98,6.2,NW,17.3,-,N/A,Rain-Thunderstorm,Light Thunderstorms and Rain,320,2013-08-06 21:30:00